Time,TemperatureF,DewpointF,PressureIn,WindDirection,WindDirectionDegrees,WindSpeedMPH,WindSpeedGustMPH,Humidity,HourlyPrecipIn,Conditions,Clouds,dailyrainin,SoftwareType,DateUTC
2013-02-25 00:00:00,40.5,24.7,29.98,SSW,198,0.0,0.0,53,0.00,,,0.00,Wunderground v.1.15,2013-02-25 05:00:00,
2013-02-25 00:05:00,40.3,25.8,29.98,SSW,198,0.0,0.0,56,0.00,,,0.00,Wunderground v.1.15,2013-02-25 05:05:00,
2013-02-25 00:10:00,39.9,25.0,29.98,SSW,198,0.0,1.0,55,0.00,,,0.00,Wunderground v.1.15,2013-02-25 05:10:00,
2013-02-25 00:15:00,39.7,24.4,29.98,SSW,198,0.0,1.0,54,0.00,,,0.00,Wunderground v.1.15,2013-02-25 05:15:00,
2013-02-25 00:20:00,39.5,25.1,29.98,SSW,198,0.0,0.0,56,0.00,,,0.00,Wunderground v.1.15,2013-02-25 05:20:00,
2013-02-25 00:30:00,38.4,25.3,29.98,SSW,198,0.0,0.0,59,0.00,,,0.00,Wunderground v.1.15,2013-02-25 05:30:00,
2013-02-25 00:35:00,37.9,25.2,29.98,SSW,198,0.0,0.0,60,0.00,,,0.00,Wunderground v.1.15,2013-02-25 05:35:00,
2013-02-25 00:40:00,37.4,27.1,29.98,SSW,198,0.0,0.0,66,0.00,,,0.00,Wunderground v.1.15,2013-02-25 05:40:00,
2013-02-25 00:45:00,36.7,26.4,29.98,SSW,198,0.0,0.0,66,0.00,,,0.00,Wunderground v.1.15,2013-02-25 05:45:00,
2013-02-25 00:50:00,36.1,26.2,29.97,SSW,198,0.0,0.0,67,0.00,,,0.00,Wunderground v.1.15,2013-02-25 05:50:00,
2013-02-25 00:55:00,35.6,25.7,29.98,SSW,198,0.0,0.0,67,0.00,,,0.00,Wunderground v.1.15,2013-02-25 05:55:00,
2013-02-25 01:05:00,34.8,25.3,29.99,SSW,198,0.0,1.0,68,0.00,,,0.00,Wunderground v.1.15,2013-02-25 06:05:00,
2013-02-25 01:10:00,34.4,25.3,29.99,SSW,198,0.0,1.0,69,0.00,,,0.00,Wunderground v.1.15,2013-02-25 06:10:00,
2013-02-25 01:15:00,34.0,24.9,29.99,SSW,198,0.0,1.0,69,0.00,,,0.00,Wunderground v.1.15,2013-02-25 06:15:00,
2013-02-25 01:20:00,33.7,24.6,29.99,SSW,198,0.0,1.0,69,0.00,,,0.00,Wunderground v.1.15,2013-02-25 06:20:00,
2013-02-25 01:25:00,33.4,24.7,29.99,SSW,198,0.0,1.0,70,0.00,,,0.00,Wunderground v.1.15,2013-02-25 06:25:00,
2013-02-25 01:35:00,32.9,24.2,29.99,SSW,198,0.0,1.0,70,0.00,,,0.00,Wunderground v.1.15,2013-02-25 06:35:00,
2013-02-25 01:40:00,32.6,24.2,29.99,SSW,198,0.0,1.0,71,0.00,,,0.00,Wunderground v.1.15,2013-02-25 06:40:00,
2013-02-25 01:45:00,32.4,24.0,29.98,SSW,198,0.0,1.0,71,0.00,,,0.00,Wunderground v.1.15,2013-02-25 06:45:00,
2013-02-25 01:50:00,32.2,23.5,29.99,SSW,198,0.0,1.0,70,0.00,,,0.00,Wunderground v.1.15,2013-02-25 06:50:00,
2013-02-25 01:55:00,32.0,23.3,29.99,SSW,198,0.0,1.0,70,0.00,,,0.00,Wunderground v.1.15,2013-02-25 06:55:00,
2013-02-25 02:00:00,31.8,23.1,29.99,SSW,198,0.0,1.0,70,0.00,,,0.00,Wunderground v.1.15,2013-02-25 07:00:00,
2013-02-25 02:05:00,31.6,22.9,29.99,SSW,198,0.0,1.0,70,0.00,,,0.00,Wunderground v.1.15,2013-02-25 07:05:00,
2013-02-25 02:10:00,31.5,22.8,29.99,SSW,198,0.0,1.0,70,0.00,,,0.00,Wunderground v.1.15,2013-02-25 07:10:00,
2013-02-25 02:15:00,31.3,22.6,29.98,SSW,198,0.0,1.0,70,0.00,,,0.00,Wunderground v.1.15,2013-02-25 07:15:00,
2013-02-25 02:20:00,31.2,22.5,29.97,SSW,198,0.0,1.0,70,0.00,,,0.00,Wunderground v.1.15,2013-02-25 07:20:00,
2013-02-25 02:25:00,31.2,22.5,29.98,SSW,198,0.0,1.0,70,0.00,,,0.00,Wunderground v.1.15,2013-02-25 07:25:00,
2013-02-25 02:30:00,31.2,22.2,29.98,SSW,198,0.0,1.0,69,0.00,,,0.00,Wunderground v.1.15,2013-02-25 07:30:00,
2013-02-25 02:40:00,31.0,22.0,29.99,SSW,198,0.0,1.0,69,0.00,,,0.00,Wunderground v.1.15,2013-02-25 07:40:00,
2013-02-25 02:45:00,31.0,22.4,29.99,SSW,198,0.0,1.0,70,0.00,,,0.00,Wunderground v.1.15,2013-02-25 07:45:00,
2013-02-25 02:50:00,31.0,22.0,30.00,SSW,198,0.0,1.0,69,0.00,,,0.00,Wunderground v.1.15,2013-02-25 07:50:00,
2013-02-25 02:55:00,30.9,21.9,29.99,SSW,198,0.0,1.0,69,0.00,,,0.00,Wunderground v.1.15,2013-02-25 07:55:00,
2013-02-25 03:00:00,31.0,21.7,30.00,SSW,198,0.0,0.0,68,0.00,,,0.00,Wunderground v.1.15,2013-02-25 08:00:00,
2013-02-25 03:10:00,31.0,21.0,30.00,SSW,198,0.0,0.0,66,0.00,,,0.00,Wunderground v.1.15,2013-02-25 08:10:00,
2013-02-25 03:15:00,31.1,21.1,29.99,SSW,198,0.0,0.0,66,0.00,,,0.00,Wunderground v.1.15,2013-02-25 08:15:00,
2013-02-25 03:20:00,31.0,21.0,29.99,SSW,198,0.0,0.0,66,0.00,,,0.00,Wunderground v.1.15,2013-02-25 08:20:00,
2013-02-25 03:25:00,31.0,21.3,29.99,SSW,198,0.0,0.0,67,0.00,,,0.00,Wunderground v.1.15,2013-02-25 08:25:00,
2013-02-25 03:30:00,31.0,21.3,29.98,SSW,198,0.0,0.0,67,0.00,,,0.00,Wunderground v.1.15,2013-02-25 08:30:00,
2013-02-25 03:35:00,30.9,21.2,29.98,SSW,198,0.0,0.0,67,0.00,,,0.00,Wunderground v.1.15,2013-02-25 08:35:00,
2013-02-25 03:45:00,30.8,20.8,29.98,SSW,198,0.0,0.0,66,0.00,,,0.00,Wunderground v.1.15,2013-02-25 08:45:00,
2013-02-25 03:50:00,30.8,20.0,29.99,SSW,198,0.0,0.0,64,0.00,,,0.00,Wunderground v.1.15,2013-02-25 08:50:00,
2013-02-25 03:55:00,30.8,20.4,29.99,SSW,198,0.0,0.0,65,0.00,,,0.00,Wunderground v.1.15,2013-02-25 08:55:00,
2013-02-25 04:00:00,30.7,20.3,30.00,SSW,198,0.0,0.0,65,0.00,,,0.00,Wunderground v.1.15,2013-02-25 09:00:00,
2013-02-25 04:05:00,30.6,20.6,30.00,SSW,198,0.0,0.0,66,0.00,,,0.00,Wunderground v.1.15,2013-02-25 09:05:00,
2013-02-25 04:15:00,30.5,20.1,30.00,SSW,198,0.0,0.0,65,0.00,,,0.00,Wunderground v.1.15,2013-02-25 09:15:00,
2013-02-25 04:20:00,30.5,19.8,30.00,SSW,198,0.0,0.0,64,0.00,,,0.00,Wunderground v.1.15,2013-02-25 09:20:00,
2013-02-25 04:25:00,30.5,19.8,30.00,SSW,198,0.0,0.0,64,0.00,,,0.00,Wunderground v.1.15,2013-02-25 09:25:00,
2013-02-25 04:30:00,30.5,19.4,30.00,SSW,198,0.0,0.0,63,0.00,,,0.00,Wunderground v.1.15,2013-02-25 09:30:00,
2013-02-25 04:35:00,30.6,19.9,30.00,SSW,198,0.0,0.0,64,0.00,,,0.00,Wunderground v.1.15,2013-02-25 09:35:00,
2013-02-25 04:40:00,30.5,19.0,30.01,SSW,198,0.0,0.0,62,0.00,,,0.00,Wunderground v.1.15,2013-02-25 09:40:00,
2013-02-25 04:50:00,30.5,19.4,30.00,SSW,198,0.0,0.0,63,0.00,,,0.00,Wunderground v.1.15,2013-02-25 09:50:00,
2013-02-25 04:55:00,30.4,19.7,30.01,SSW,198,0.0,0.0,64,0.00,,,0.00,Wunderground v.1.15,2013-02-25 09:55:00,
2013-02-25 05:00:00,30.3,19.2,30.02,SSW,198,0.0,0.0,63,0.00,,,0.00,Wunderground v.1.15,2013-02-25 10:00:00,
2013-02-25 05:05:00,30.3,18.8,30.02,SSW,198,0.0,0.0,62,0.00,,,0.00,Wunderground v.1.15,2013-02-25 10:05:00,
2013-02-25 05:10:00,30.3,18.8,30.02,SSW,198,0.0,0.0,62,0.00,,,0.00,Wunderground v.1.15,2013-02-25 10:10:00,
2013-02-25 05:20:00,30.2,18.7,30.01,SSW,198,0.0,0.0,62,0.00,,,0.00,Wunderground v.1.15,2013-02-25 10:20:00,
2013-02-25 05:25:00,30.2,18.4,30.02,SSW,198,0.0,0.0,61,0.00,,,0.00,Wunderground v.1.15,2013-02-25 10:25:00,
2013-02-25 05:30:00,30.1,17.9,30.02,SSW,198,0.0,0.0,60,0.00,,,0.00,Wunderground v.1.15,2013-02-25 10:30:00,
2013-02-25 05:35:00,30.1,17.5,30.02,SSW,198,0.0,0.0,59,0.00,,,0.00,Wunderground v.1.15,2013-02-25 10:35:00,
2013-02-25 05:40:00,30.1,17.9,30.02,SSW,198,0.0,0.0,60,0.00,,,0.00,Wunderground v.1.15,2013-02-25 10:40:00,
2013-02-25 05:45:00,30.0,17.8,30.02,SSW,198,0.0,0.0,60,0.00,,,0.00,Wunderground v.1.15,2013-02-25 10:45:00,
2013-02-25 05:55:00,30.0,17.4,30.02,SSW,198,0.0,0.0,59,0.00,,,0.00,Wunderground v.1.15,2013-02-25 10:55:00,
2013-02-25 06:00:00,29.9,17.3,30.03,SSW,198,0.0,0.0,59,0.00,,,0.00,Wunderground v.1.15,2013-02-25 11:00:00,
2013-02-25 06:10:00,29.9,16.1,30.03,SSW,198,0.0,0.0,56,0.00,,,0.00,Wunderground v.1.15,2013-02-25 11:10:00,
2013-02-25 06:15:00,29.9,16.1,30.03,SSW,198,0.0,0.0,56,0.00,,,0.00,Wunderground v.1.15,2013-02-25 11:15:00,
2013-02-25 06:20:00,29.9,16.1,30.03,SSW,198,0.0,0.0,56,0.00,,,0.00,Wunderground v.1.15,2013-02-25 11:20:00,
2013-02-25 06:25:00,29.9,15.7,30.04,SSW,198,0.0,0.0,55,0.00,,,0.00,Wunderground v.1.15,2013-02-25 11:25:00,
2013-02-25 06:30:00,29.9,15.3,30.04,SSW,198,0.0,0.0,54,0.00,,,0.00,Wunderground v.1.15,2013-02-25 11:30:00,
2013-02-25 06:35:00,29.9,15.3,30.04,SSW,198,0.0,0.0,54,0.00,,,0.00,Wunderground v.1.15,2013-02-25 11:35:00,
2013-02-25 06:40:00,29.9,14.8,30.04,SSW,198,0.0,0.0,53,0.00,,,0.00,Wunderground v.1.15,2013-02-25 11:40:00,
2013-02-25 06:45:00,29.9,14.8,30.04,SSW,198,0.0,0.0,53,0.00,,,0.00,Wunderground v.1.15,2013-02-25 11:45:00,
2013-02-25 06:50:00,29.9,15.3,30.05,SSW,198,0.0,0.0,54,0.00,,,0.00,Wunderground v.1.15,2013-02-25 11:50:00,
2013-02-25 07:00:00,29.9,14.4,30.06,SSW,198,0.0,0.0,52,0.00,,,0.00,Wunderground v.1.15,2013-02-25 12:00:00,
2013-02-25 07:05:00,29.9,13.5,30.05,SSW,198,0.0,0.0,50,0.00,,,0.00,Wunderground v.1.15,2013-02-25 12:05:00,
2013-02-25 07:10:00,29.9,13.5,30.06,SSW,198,0.0,0.0,50,0.00,,,0.00,Wunderground v.1.15,2013-02-25 12:10:00,
2013-02-25 07:15:00,29.9,13.0,30.05,SSW,198,0.0,0.0,49,0.00,,,0.00,Wunderground v.1.15,2013-02-25 12:15:00,
2013-02-25 07:20:00,29.9,13.0,30.05,SSW,198,0.0,0.0,49,0.00,,,0.00,Wunderground v.1.15,2013-02-25 12:20:00,
2013-02-25 07:25:00,29.9,13.5,30.05,SSW,198,0.0,0.0,50,0.00,,,0.00,Wunderground v.1.15,2013-02-25 12:25:00,
2013-02-25 07:30:00,29.9,13.0,30.06,SSW,198,0.0,0.0,49,0.00,,,0.00,Wunderground v.1.15,2013-02-25 12:30:00,
2013-02-25 07:35:00,30.0,12.7,30.06,SSW,198,0.0,0.0,48,0.00,,,0.00,Wunderground v.1.15,2013-02-25 12:35:00,
2013-02-25 07:40:00,30.0,12.7,30.07,SSW,198,0.0,0.0,48,0.00,,,0.00,Wunderground v.1.15,2013-02-25 12:40:00,
2013-02-25 07:45:00,30.1,12.3,30.07,SSW,198,0.0,0.0,47,0.00,,,0.00,Wunderground v.1.15,2013-02-25 12:45:00,
2013-02-25 07:55:00,30.3,13.4,30.07,SSW,198,0.0,0.0,49,0.00,,,0.00,Wunderground v.1.15,2013-02-25 12:55:00,
2013-02-25 08:00:00,30.4,13.5,30.07,SSW,198,0.0,0.0,49,0.00,,,0.00,Wunderground v.1.15,2013-02-25 13:00:00,
2013-02-25 08:05:00,30.5,14.0,30.08,SSW,198,0.0,0.0,50,0.00,,,0.00,Wunderground v.1.15,2013-02-25 13:05:00,
2013-02-25 08:15:00,30.9,12.0,30.09,SSW,198,0.0,0.0,45,0.00,,,0.00,Wunderground v.1.15,2013-02-25 13:15:00,
2013-02-25 08:20:00,31.1,12.7,30.09,SSW,198,0.0,0.0,46,0.00,,,0.00,Wunderground v.1.15,2013-02-25 13:20:00,
2013-02-25 08:25:00,31.2,13.3,30.09,SSW,198,0.0,0.0,47,0.00,,,0.00,Wunderground v.1.15,2013-02-25 13:25:00,
2013-02-25 08:30:00,31.4,13.5,30.10,SSW,198,0.0,0.0,47,0.00,,,0.00,Wunderground v.1.15,2013-02-25 13:30:00,
2013-02-25 08:40:00,31.8,14.8,30.10,SSW,198,0.0,0.0,49,0.00,,,0.00,Wunderground v.1.15,2013-02-25 13:40:00,
2013-02-25 08:45:00,32.1,15.1,30.10,SSW,198,0.0,0.0,49,0.00,,,0.00,Wunderground v.1.15,2013-02-25 13:45:00,
2013-02-25 08:50:00,32.4,15.8,30.11,SSW,198,0.0,0.0,50,0.00,,,0.00,Wunderground v.1.15,2013-02-25 13:50:00,
2013-02-25 08:55:00,32.7,17.4,30.11,SSW,198,0.0,0.0,53,0.00,,,0.00,Wunderground v.1.15,2013-02-25 13:55:00,
2013-02-25 09:00:00,33.0,20.6,30.12,SSW,198,0.0,0.0,60,0.00,,,0.00,Wunderground v.1.15,2013-02-25 14:00:00,
2013-02-25 09:10:00,33.8,20.6,30.13,SSW,198,0.0,0.0,58,0.00,,,0.00,Wunderground v.1.15,2013-02-25 14:10:00,
2013-02-25 09:15:00,34.3,21.0,30.13,SSW,198,0.0,0.0,58,0.00,,,0.00,Wunderground v.1.15,2013-02-25 14:15:00,
2013-02-25 09:25:00,35.2,25.7,30.12,NNW,342,0.0,2.0,68,0.00,,,0.00,Wunderground v.1.15,2013-02-25 14:25:00,
2013-02-25 09:30:00,35.8,27.3,30.12,NNW,334,0.0,0.0,71,0.00,,,0.00,Wunderground v.1.15,2013-02-25 14:30:00,
2013-02-25 09:35:00,36.2,27.4,30.12,WNW,298,0.0,2.0,70,0.00,,,0.00,Wunderground v.1.15,2013-02-25 14:35:00,
2013-02-25 09:40:00,36.6,27.7,30.12,North,355,1.0,1.0,70,0.00,,,0.00,Wunderground v.1.15,2013-02-25 14:40:00,
2013-02-25 09:45:00,37.0,27.8,30.11,North,355,1.0,1.0,69,0.00,,,0.00,Wunderground v.1.15,2013-02-25 14:45:00,
2013-02-25 09:50:00,37.3,27.0,30.12,NNE,27,0.0,0.0,66,0.00,,,0.00,Wunderground v.1.15,2013-02-25 14:50:00,
2013-02-25 09:55:00,37.5,27.9,30.11,NNW,336,0.0,0.0,68,0.00,,,0.00,Wunderground v.1.15,2013-02-25 14:55:00,
2013-02-25 10:00:00,37.6,27.6,30.12,NNW,327,0.0,0.0,67,0.00,,,0.00,Wunderground v.1.15,2013-02-25 15:00:00,
2013-02-25 10:05:00,37.7,27.4,30.12,WNW,300,1.0,1.0,66,0.00,,,0.00,Wunderground v.1.15,2013-02-25 15:05:00,
2013-02-25 10:10:00,37.8,27.1,30.12,WNW,300,0.0,0.0,65,0.00,,,0.00,Wunderground v.1.15,2013-02-25 15:10:00,
2013-02-25 10:20:00,37.8,27.1,30.12,NNW,337,1.0,1.0,65,0.00,,,0.00,Wunderground v.1.15,2013-02-25 15:20:00,
2013-02-25 10:25:00,37.8,27.1,30.12,NW,318,1.0,2.0,65,0.00,,,0.00,Wunderground v.1.15,2013-02-25 15:25:00,
2013-02-25 10:30:00,37.8,27.1,30.13,NW,319,1.0,1.0,65,0.00,,,0.00,Wunderground v.1.15,2013-02-25 15:30:00,
2013-02-25 10:35:00,37.9,27.2,30.12,NW,319,0.0,1.0,65,0.00,,,0.00,Wunderground v.1.15,2013-02-25 15:35:00,
2013-02-25 10:40:00,38.0,26.9,30.12,NW,316,0.0,0.0,64,0.00,,,0.00,Wunderground v.1.15,2013-02-25 15:40:00,
2013-02-25 10:45:00,38.1,27.0,30.11,NW,317,1.0,1.0,64,0.00,,,0.00,Wunderground v.1.15,2013-02-25 15:45:00,
2013-02-25 10:55:00,38.3,27.2,30.11,North,355,1.0,1.0,64,0.00,,,0.00,Wunderground v.1.15,2013-02-25 15:55:00,
2013-02-25 11:00:00,38.4,27.3,30.11,North,355,0.0,0.0,64,0.00,,,0.00,Wunderground v.1.15,2013-02-25 16:00:00,
2013-02-25 11:05:00,38.5,27.0,30.11,NW,304,0.0,0.0,63,0.00,,,0.00,Wunderground v.1.15,2013-02-25 16:05:00,
2013-02-25 11:10:00,38.6,27.1,30.11,West,272,0.0,0.0,63,0.00,,,0.00,Wunderground v.1.15,2013-02-25 16:10:00,
2013-02-25 11:15:00,38.6,27.1,30.10,NW,309,1.0,1.0,63,0.00,,,0.00,Wunderground v.1.15,2013-02-25 16:15:00,
2013-02-25 11:25:00,39.0,27.5,30.10,North,360,1.0,3.0,63,0.00,,,0.00,Wunderground v.1.15,2013-02-25 16:25:00,
2013-02-25 11:30:00,39.2,26.9,30.10,North,360,1.0,1.0,61,0.00,,,0.00,Wunderground v.1.15,2013-02-25 16:30:00,
2013-02-25 11:35:00,39.3,26.6,30.09,NW,313,0.0,2.0,60,0.00,,,0.00,Wunderground v.1.15,2013-02-25 16:35:00,
2013-02-25 11:40:00,39.6,27.2,30.09,NNW,346,1.0,1.0,61,0.00,,,0.00,Wunderground v.1.15,2013-02-25 16:40:00,
2013-02-25 11:45:00,39.8,27.4,30.09,NE,47,1.0,4.0,61,0.00,,,0.00,Wunderground v.1.15,2013-02-25 16:45:00,
2013-02-25 11:50:00,39.9,27.5,30.09,NE,44,1.0,1.0,61,0.00,,,0.00,Wunderground v.1.15,2013-02-25 16:50:00,
2013-02-25 12:00:00,40.2,27.8,30.09,NE,49,1.0,1.0,61,0.00,,,0.00,Wunderground v.1.15,2013-02-25 17:00:00,
2013-02-25 12:10:00,40.6,27.4,30.10,NNW,331,1.0,1.0,59,0.00,,,0.00,Wunderground v.1.15,2013-02-25 17:10:00,
2013-02-25 12:15:00,40.9,27.2,30.09,NNE,26,0.0,3.0,58,0.00,,,0.00,Wunderground v.1.15,2013-02-25 17:15:00,
2013-02-25 12:20:00,40.8,26.7,30.09,North,11,1.0,1.0,57,0.00,,,0.00,Wunderground v.1.15,2013-02-25 17:20:00,
2013-02-25 12:30:00,40.9,26.4,30.10,NW,322,1.0,1.0,56,0.00,,,0.00,Wunderground v.1.15,2013-02-25 17:30:00,
2013-02-25 12:35:00,41.0,27.3,30.10,North,355,1.0,1.0,58,0.00,,,0.00,Wunderground v.1.15,2013-02-25 17:35:00,
2013-02-25 12:40:00,41.3,28.0,30.09,North,355,0.0,0.0,59,0.00,,,0.00,Wunderground v.1.15,2013-02-25 17:40:00,
2013-02-25 12:45:00,41.3,27.2,30.08,NNW,336,1.0,1.0,57,0.00,,,0.00,Wunderground v.1.15,2013-02-25 17:45:00,
2013-02-25 12:50:00,41.5,27.4,30.08,NNW,336,1.0,1.0,57,0.00,,,0.00,Wunderground v.1.15,2013-02-25 17:50:00,
2013-02-25 12:55:00,41.6,27.1,30.07,NNE,16,0.0,1.0,56,0.00,,,0.00,Wunderground v.1.15,2013-02-25 17:55:00,
2013-02-25 13:05:00,41.7,27.1,30.07,NW,311,1.0,7.0,56,0.00,,,0.00,Wunderground v.1.15,2013-02-25 18:05:00,
2013-02-25 13:10:00,41.6,27.5,30.07,ENE,76,1.0,7.0,57,0.00,,,0.00,Wunderground v.1.15,2013-02-25 18:10:00,
2013-02-25 13:15:00,41.6,27.5,30.07,NNW,344,2.0,7.0,57,0.00,,,0.00,Wunderground v.1.15,2013-02-25 18:15:00,
2013-02-25 13:20:00,41.4,26.9,30.07,NNE,24,2.0,7.0,56,0.00,,,0.00,Wunderground v.1.15,2013-02-25 18:20:00,
2013-02-25 13:25:00,41.3,26.8,30.06,NNE,31,2.0,7.0,56,0.00,,,0.00,Wunderground v.1.15,2013-02-25 18:25:00,
2013-02-25 13:35:00,41.2,27.1,30.05,NNE,26,1.0,7.0,57,0.00,,,0.00,Wunderground v.1.15,2013-02-25 18:35:00,
2013-02-25 13:40:00,41.2,27.1,30.06,North,360,1.0,7.0,57,0.00,,,0.00,Wunderground v.1.15,2013-02-25 18:40:00,
2013-02-25 13:45:00,41.4,27.3,30.06,NNE,17,1.0,7.0,57,0.00,,,0.00,Wunderground v.1.15,2013-02-25 18:45:00,
2013-02-25 13:50:00,41.7,26.3,30.06,NNE,33,1.0,7.0,54,0.00,,,0.00,Wunderground v.1.15,2013-02-25 18:50:00,
2013-02-25 13:55:00,41.6,27.5,30.06,WNW,298,1.0,7.0,57,0.00,,,0.00,Wunderground v.1.15,2013-02-25 18:55:00,
2013-02-25 14:00:00,41.9,27.3,30.06,West,271,1.0,7.0,56,0.00,,,0.00,Wunderground v.1.15,2013-02-25 19:00:00,
2013-02-25 14:10:00,42.1,27.1,30.06,NW,306,1.0,7.0,55,0.00,,,0.00,Wunderground v.1.15,2013-02-25 19:10:00,
2013-02-25 14:15:00,42.0,27.0,30.06,West,267,1.0,7.0,55,0.00,,,0.00,Wunderground v.1.15,2013-02-25 19:15:00,
2013-02-25 14:20:00,42.1,28.4,30.06,West,275,1.0,7.0,58,0.00,,,0.00,Wunderground v.1.15,2013-02-25 19:20:00,
2013-02-25 14:25:00,42.2,27.6,30.06,WNW,286,0.0,7.0,56,0.00,,,0.00,Wunderground v.1.15,2013-02-25 19:25:00,
2013-02-25 14:30:00,42.3,27.3,30.06,WNW,295,0.0,7.0,55,0.00,,,0.00,Wunderground v.1.15,2013-02-25 19:30:00,
2013-02-25 14:40:00,42.1,27.1,30.04,North,355,1.0,7.0,55,0.00,,,0.00,Wunderground v.1.15,2013-02-25 19:40:00,
2013-02-25 14:45:00,42.1,27.1,30.04,NE,42,1.0,7.0,55,0.00,,,0.00,Wunderground v.1.15,2013-02-25 19:45:00,
2013-02-25 14:50:00,42.1,27.1,30.04,NNE,30,1.0,1.0,55,0.00,,,0.00,Wunderground v.1.15,2013-02-25 19:50:00,
2013-02-25 14:55:00,42.4,28.2,30.04,NNE,30,0.0,7.0,57,0.00,,,0.00,Wunderground v.1.15,2013-02-25 19:55:00,
2013-02-25 15:00:00,42.8,28.6,30.04,NNE,32,0.0,0.0,57,0.00,,,0.00,Wunderground v.1.15,2013-02-25 20:00:00,
2013-02-25 15:10:00,43.3,28.6,30.03,North,5,0.0,0.0,56,0.00,,,0.00,Wunderground v.1.15,2013-02-25 20:10:00,
2013-02-25 15:15:00,43.6,27.6,30.04,North,5,1.0,2.0,53,0.00,,,0.00,Wunderground v.1.15,2013-02-25 20:15:00,
2013-02-25 15:20:00,43.3,26.8,30.04,NNE,18,2.0,3.0,52,0.00,,,0.00,Wunderground v.1.15,2013-02-25 20:20:00,
2013-02-25 15:25:00,43.4,27.4,30.03,NE,46,2.0,3.0,53,0.00,,,0.00,Wunderground v.1.15,2013-02-25 20:25:00,
2013-02-25 15:30:00,43.4,26.9,30.04,NNE,13,1.0,1.0,52,0.00,,,0.00,Wunderground v.1.15,2013-02-25 20:30:00,
2013-02-25 15:35:00,43.4,27.4,30.04,North,360,1.0,1.0,53,0.00,,,0.00,Wunderground v.1.15,2013-02-25 20:35:00,
2013-02-25 15:45:00,44.0,28.4,30.03,North,5,1.0,3.0,54,0.00,,,0.00,Wunderground v.1.15,2013-02-25 20:45:00,
2013-02-25 15:50:00,44.1,27.6,30.03,North,360,1.0,1.0,52,0.00,,,0.00,Wunderground v.1.15,2013-02-25 20:50:00,
2013-02-25 15:55:00,44.0,27.5,30.04,NNE,24,1.0,3.0,52,0.00,,,0.00,Wunderground v.1.15,2013-02-25 20:55:00,
2013-02-25 16:00:00,44.0,28.0,30.03,NNE,24,1.0,2.0,53,0.00,,,0.00,Wunderground v.1.15,2013-02-25 21:00:00,
2013-02-25 16:05:00,44.3,29.1,30.04,NNE,30,1.0,2.0,55,0.00,,,0.00,Wunderground v.1.15,2013-02-25 21:05:00,
2013-02-25 16:10:00,44.6,29.0,30.03,NW,309,1.0,1.0,54,0.00,,,0.00,Wunderground v.1.15,2013-02-25 21:10:00,
2013-02-25 16:20:00,44.8,28.2,30.03,NW,323,0.0,2.0,52,0.00,,,0.00,Wunderground v.1.15,2013-02-25 21:20:00,
2013-02-25 16:25:00,44.7,28.6,30.02,NW,323,0.0,2.0,53,0.00,,,0.00,Wunderground v.1.15,2013-02-25 21:25:00,
2013-02-25 16:30:00,44.7,27.7,30.02,NW,309,0.0,2.0,51,0.00,,,0.00,Wunderground v.1.15,2013-02-25 21:30:00,
2013-02-25 16:35:00,44.5,28.4,30.03,NNW,331,1.0,2.0,53,0.00,,,0.00,Wunderground v.1.15,2013-02-25 21:35:00,
2013-02-25 16:40:00,44.4,27.9,30.03,North,355,0.0,2.0,52,0.00,,,0.00,Wunderground v.1.15,2013-02-25 21:40:00,
2013-02-25 16:45:00,44.2,29.0,30.02,NNW,346,1.0,2.0,55,0.00,,,0.00,Wunderground v.1.15,2013-02-25 21:45:00,
2013-02-25 16:55:00,44.1,28.5,30.03,NW,304,0.0,2.0,54,0.00,,,0.00,Wunderground v.1.15,2013-02-25 21:55:00,
2013-02-25 17:00:00,44.0,28.0,30.03,WNW,286,0.0,2.0,53,0.00,,,0.00,Wunderground v.1.15,2013-02-25 22:00:00,
2013-02-25 17:05:00,43.8,28.7,30.03,WNW,286,0.0,2.0,55,0.00,,,0.00,Wunderground v.1.15,2013-02-25 22:05:00,
2013-02-25 17:10:00,43.6,28.0,30.02,NNW,340,0.0,3.0,54,0.00,,,0.00,Wunderground v.1.15,2013-02-25 22:10:00,
2013-02-25 17:15:00,43.4,28.7,30.02,NNW,340,0.0,3.0,56,0.00,,,0.00,Wunderground v.1.15,2013-02-25 22:15:00,
2013-02-25 17:20:00,43.3,28.6,30.02,NNW,340,0.0,2.0,56,0.00,,,0.00,Wunderground v.1.15,2013-02-25 22:20:00,
2013-02-25 17:25:00,43.2,29.4,30.02,NNW,340,0.0,2.0,58,0.00,,,0.00,Wunderground v.1.15,2013-02-25 22:25:00,
2013-02-25 17:30:00,42.9,29.1,30.02,NNW,340,0.0,2.0,58,0.00,,,0.00,Wunderground v.1.15,2013-02-25 22:30:00,
2013-02-25 17:35:00,42.7,28.5,30.01,NNW,340,0.0,2.0,57,0.00,,,0.00,Wunderground v.1.15,2013-02-25 22:35:00,
2013-02-25 17:45:00,42.4,29.1,30.01,NNW,340,0.0,2.0,59,0.00,,,0.00,Wunderground v.1.15,2013-02-25 22:45:00,
2013-02-25 17:50:00,42.1,28.8,30.01,West,273,0.0,2.0,59,0.00,,,0.00,Wunderground v.1.15,2013-02-25 22:50:00,
2013-02-25 17:55:00,41.7,29.2,30.01,WNW,291,0.0,2.0,61,0.00,,,0.00,Wunderground v.1.15,2013-02-25 22:55:00,
2013-02-25 18:00:00,41.4,28.5,30.01,WNW,291,0.0,0.0,60,0.00,,,0.00,Wunderground v.1.15,2013-02-25 23:00:00,
2013-02-25 18:10:00,40.9,28.9,30.01,WNW,291,0.0,0.0,62,0.00,,,0.00,Wunderground v.1.15,2013-02-25 23:10:00,
2013-02-25 18:15:00,40.5,28.5,30.01,North,5,0.0,0.0,62,0.00,,,0.00,Wunderground v.1.15,2013-02-25 23:15:00,
2013-02-25 18:25:00,40.0,28.4,30.02,NNW,333,0.0,0.0,63,0.00,,,0.00,Wunderground v.1.15,2013-02-25 23:25:00,
2013-02-25 18:30:00,39.9,29.1,30.02,NE,54,0.0,1.0,65,0.00,,,0.00,Wunderground v.1.15,2013-02-25 23:30:00,
2013-02-25 18:35:00,39.8,29.0,30.03,NE,54,0.0,1.0,65,0.00,,,0.00,Wunderground v.1.15,2013-02-25 23:35:00,
2013-02-25 18:40:00,39.8,29.4,30.03,NE,54,0.0,0.0,66,0.00,,,0.00,Wunderground v.1.15,2013-02-25 23:40:00,
2013-02-25 18:45:00,39.8,29.0,30.03,North,360,0.0,0.0,65,0.00,,,0.00,Wunderground v.1.15,2013-02-25 23:45:00,
2013-02-25 18:50:00,39.8,29.4,30.03,West,278,0.0,0.0,66,0.00,,,0.00,Wunderground v.1.15,2013-02-25 23:50:00,
2013-02-25 19:00:00,39.8,29.4,30.02,North,10,0.0,2.0,66,0.00,,,0.00,Wunderground v.1.15,2013-02-26 00:00:00,
2013-02-25 19:05:00,39.8,29.0,30.03,North,10,0.0,2.0,65,0.00,,,0.00,Wunderground v.1.15,2013-02-26 00:05:00,
2013-02-25 19:10:00,39.8,29.4,30.03,North,10,0.0,2.0,66,0.00,,,0.00,Wunderground v.1.15,2013-02-26 00:10:00,
2013-02-25 19:15:00,39.7,29.6,30.03,North,360,0.0,2.0,67,0.00,,,0.00,Wunderground v.1.15,2013-02-26 00:15:00,
2013-02-25 19:20:00,39.7,29.3,30.03,NNE,12,0.0,2.0,66,0.00,,,0.00,Wunderground v.1.15,2013-02-26 00:20:00,
2013-02-25 19:30:00,39.7,28.9,30.03,NW,314,1.0,1.0,65,0.00,,,0.00,Wunderground v.1.15,2013-02-26 00:30:00,
2013-02-25 19:35:00,39.7,29.3,30.03,NW,315,1.0,2.0,66,0.00,,,0.00,Wunderground v.1.15,2013-02-26 00:35:00,
2013-02-25 19:40:00,39.7,28.9,30.03,North,5,1.0,1.0,65,0.00,,,0.00,Wunderground v.1.15,2013-02-26 00:40:00,
2013-02-25 19:45:00,39.5,28.7,30.02,NE,43,1.0,2.0,65,0.00,,,0.00,Wunderground v.1.15,2013-02-26 00:45:00,
2013-02-25 19:50:00,39.4,29.0,30.02,NE,51,1.0,2.0,66,0.00,,,0.00,Wunderground v.1.15,2013-02-26 00:50:00,
2013-02-25 19:55:00,39.2,28.8,30.02,North,355,1.0,2.0,66,0.00,,,0.00,Wunderground v.1.15,2013-02-26 00:55:00,
2013-02-25 20:05:00,38.7,28.7,30.03,NNE,27,2.0,2.0,67,0.00,,,0.00,Wunderground v.1.15,2013-02-26 01:05:00,
2013-02-25 20:10:00,38.6,28.6,30.04,NW,321,1.0,3.0,67,0.00,,,0.00,Wunderground v.1.15,2013-02-26 01:10:00,
2013-02-25 20:15:00,38.5,28.5,30.04,NNW,327,1.0,3.0,67,0.00,,,0.00,Wunderground v.1.15,2013-02-26 01:15:00,
2013-02-25 20:20:00,38.4,28.8,30.04,North,5,1.0,1.0,68,0.00,,,0.00,Wunderground v.1.15,2013-02-26 01:20:00,
2013-02-25 20:25:00,38.4,28.8,30.04,North,5,0.0,2.0,68,0.00,,,0.00,Wunderground v.1.15,2013-02-26 01:25:00,
2013-02-25 20:35:00,38.2,28.2,30.04,NW,321,1.0,2.0,67,0.00,,,0.00,Wunderground v.1.15,2013-02-26 01:35:00,
2013-02-25 20:40:00,38.1,28.5,30.04,NW,323,1.0,2.0,68,0.00,,,0.00,Wunderground v.1.15,2013-02-26 01:40:00,
2013-02-25 20:45:00,38.0,28.4,30.04,East,96,1.0,2.0,68,0.00,,,0.00,Wunderground v.1.15,2013-02-26 01:45:00,
2013-02-25 20:50:00,37.9,28.3,30.05,NW,308,1.0,2.0,68,0.00,,,0.00,Wunderground v.1.15,2013-02-26 01:50:00,
2013-02-25 20:55:00,37.8,28.5,30.05,NNW,328,1.0,2.0,69,0.00,,,0.00,Wunderground v.1.15,2013-02-26 01:55:00,
2013-02-25 21:00:00,37.7,28.4,30.04,NE,34,1.0,1.0,69,0.00,,,0.00,Wunderground v.1.15,2013-02-26 02:00:00,
2013-02-25 21:10:00,37.6,28.3,30.04,WNW,294,0.0,3.0,69,0.00,,,0.00,Wunderground v.1.15,2013-02-26 02:10:00,
2013-02-25 21:15:00,37.5,28.2,30.04,NNE,22,1.0,3.0,69,0.00,,,0.00,Wunderground v.1.15,2013-02-26 02:15:00,
2013-02-25 21:20:00,37.4,28.2,30.04,North,5,1.0,2.0,69,0.00,,,0.00,Wunderground v.1.15,2013-02-26 02:20:00,
2013-02-25 21:25:00,37.3,28.1,30.05,North,5,1.0,2.0,69,0.00,,,0.00,Wunderground v.1.15,2013-02-26 02:25:00,
2013-02-25 21:30:00,37.2,28.0,30.06,NNW,328,1.0,1.0,69,0.00,,,0.00,Wunderground v.1.15,2013-02-26 02:30:00,
2013-02-25 21:35:00,37.1,27.9,30.06,NNW,328,1.0,1.0,69,0.00,,,0.00,Wunderground v.1.15,2013-02-26 02:35:00,
2013-02-25 21:40:00,37.0,27.8,30.05,NNW,334,1.0,1.0,69,0.00,,,0.00,Wunderground v.1.15,2013-02-26 02:40:00,
2013-02-25 21:45:00,36.9,28.0,30.05,NNE,15,0.0,1.0,70,0.00,,,0.00,Wunderground v.1.15,2013-02-26 02:45:00,
2013-02-25 21:50:00,36.7,27.8,30.05,NNW,342,1.0,1.0,70,0.00,,,0.00,Wunderground v.1.15,2013-02-26 02:50:00,
2013-02-25 21:55:00,36.6,28.1,30.04,NE,55,1.0,2.0,71,0.00,,,0.00,Wunderground v.1.15,2013-02-26 02:55:00,
2013-02-25 22:00:00,36.5,28.0,30.04,NW,311,1.0,1.0,71,0.00,,,0.00,Wunderground v.1.15,2013-02-26 03:00:00,
2013-02-25 22:10:00,36.3,27.8,30.03,NW,313,0.0,3.0,71,0.00,,,0.00,Wunderground v.1.15,2013-02-26 03:10:00,
2013-02-25 22:15:00,36.3,27.8,30.04,NNE,21,0.0,3.0,71,0.00,,,0.00,Wunderground v.1.15,2013-02-26 03:15:00,
2013-02-25 22:20:00,36.2,27.4,30.04,NW,317,1.0,3.0,70,0.00,,,0.00,Wunderground v.1.15,2013-02-26 03:20:00,
2013-02-25 22:25:00,36.2,27.7,30.04,NE,35,1.0,3.0,71,0.00,,,0.00,Wunderground v.1.15,2013-02-26 03:25:00,
2013-02-25 22:30:00,36.1,27.3,30.04,North,5,1.0,5.0,70,0.00,,,0.00,Wunderground v.1.15,2013-02-26 03:30:00,
2013-02-25 22:35:00,35.9,26.7,30.03,North,11,1.0,5.0,69,0.00,,,0.00,Wunderground v.1.15,2013-02-26 03:35:00,
2013-02-25 22:45:00,35.6,26.1,30.03,North,11,0.0,3.0,68,0.00,,,0.00,Wunderground v.1.15,2013-02-26 03:45:00,
2013-02-25 22:50:00,35.5,24.9,30.03,North,11,0.0,3.0,65,0.00,,,0.00,Wunderground v.1.15,2013-02-26 03:50:00,
2013-02-25 22:55:00,35.3,23.2,30.03,West,274,0.0,3.0,61,0.00,,,0.00,Wunderground v.1.15,2013-02-26 03:55:00,
2013-02-25 23:00:00,35.1,21.8,30.04,West,274,0.0,3.0,58,0.00,,,0.00,Wunderground v.1.15,2013-02-26 04:00:00,
2013-02-25 23:05:00,34.9,19.0,30.04,West,274,0.0,3.0,52,0.00,,,0.00,Wunderground v.1.15,2013-02-26 04:05:00,
2013-02-25 23:15:00,34.3,14.1,30.03,North,355,1.0,3.0,43,0.00,,,0.01,Wunderground v.1.15,2013-02-26 04:15:00,
2013-02-25 23:20:00,34.1,11.7,30.02,North,360,1.0,1.0,39,0.00,,,0.01,Wunderground v.1.15,2013-02-26 04:20:00,
2013-02-25 23:25:00,34.0,10.4,30.03,NNW,341,0.0,3.0,37,0.00,,,0.01,Wunderground v.1.15,2013-02-26 04:25:00,
2013-02-25 23:30:00,33.8,9.6,30.03,NNW,341,0.0,3.0,36,0.00,,,0.01,Wunderground v.1.15,2013-02-26 04:30:00,
2013-02-25 23:35:00,33.7,8.3,30.02,North,5,0.0,3.0,34,0.00,,,0.01,Wunderground v.1.15,2013-02-26 04:35:00,
2013-02-25 23:40:00,33.5,8.1,30.02,North,360,1.0,3.0,34,0.00,,,0.01,Wunderground v.1.15,2013-02-26 04:40:00,
2013-02-25 23:50:00,33.3,5.1,30.03,NW,313,1.0,1.0,30,0.00,,,0.01,Wunderground v.1.15,2013-02-26 04:50:00,
2013-02-25 23:55:00,33.2,5.1,30.03,NE,53,1.0,3.0,30,0.00,,,0.01,Wunderground v.1.15,2013-02-26 04:55:00,